EA5BZ Weather Reports


time (UTC)temp
C
wind
direction
speed
KPH
gust
KPH
rain 1hr
cm
rain 24hr
cm
rain mn
cm
humidity
%
barometer
mb
20260504100516 18 248 6.4 12.9 0.00 0.15 0.15 88 1014.1
20260504081516 17 203 3.2 8.0 0.00 0.15 0.15 93 1014.1
20260504081016 17 203 3.2 11.3 0.00 0.15 0.15 92 1014.1
20260504080516 17 225 3.2 11.3 0.00 0.15 0.15 92 1014.1
20260504050516 16 0.0 0.0 0.00 0.13 0.13 92 1013.4
20260504050016 16 0.0 3.2 0.00 0.13 0.13 92 1013.4
20260504045536 16 0.0 1.6 0.00 0.13 0.13 92 1013.4
20260504045016 16 0.0 0.0 0.00 0.13 0.13 92 1013.3
20260504044516 16 0.0 1.6 0.00 0.13 0.13 92 1013.2
20260504044056 16 0.0 0.0 0.00 0.13 0.13 92 1013.3
20260504043516 16 0.0 0.0 0.03 0.13 0.13 92 1013.3
20260504043016 16 0.0 0.0 0.03 0.13 0.13 92 1013.3
20260504042516 16 0.0 0.0 0.03 0.13 0.13 92 1013.3
20260504042016 16 23 1.6 4.8 0.03 0.13 0.13 92 1013.3
20260504041516 16 23 1.6 6.4 0.03 0.13 0.13 92 1013.3
20260504041015 16 23 3.2 6.4 0.03 0.13 0.13 92 1013.3
20260504040516 16 23 3.2 6.4 0.03 0.13 0.13 92 1013.4
20260504040016 16 0.0 6.4 0.03 0.13 0.13 92 1013.4
20260504035535 16 0.0 3.2 0.03 0.13 0.13 92 1013.5
20260504035015 16 23 3.2 12.9 0.03 0.13 0.13 92 1013.4
20260504034516 16 23 4.8 12.9 0.03 0.13 0.13 92 1013.5
20260504034015 16 0 3.2 11.3 0.03 0.13 0.13 92 1013.5
20260504033536 16 0 3.2 8.0 0.00 0.10 0.10 92 1013.6
20260504033015 16 23 1.6 4.8 0.03 0.10 0.10 92 1013.7
20260504032515 16 0 3.2 11.3 0.03 0.10 0.10 92 1013.7
20260504032015 16 0 3.2 9.7 0.05 0.10 0.10 92 1013.7
20260504031515 16 0 3.2 8.0 0.08 0.10 0.10 91 1013.9
20260504031015 16 0 3.2 8.0 0.08 0.10 0.10 92 1013.9
20260504030515 16 0 3.2 11.3 0.08 0.10 0.10 91 1013.9
20260504030015 16 0 3.2 8.0 0.08 0.10 0.10 91 1014.0
20260504025516 16 0 3.2 6.4 0.08 0.10 0.10 91 1014.0
20260504025015 16 23 3.2 8.0 0.10 0.10 0.10 91 1014.1
20260504024515 16 23 3.2 8.0 0.10 0.10 0.10 91 1014.2
20260504024016 16 0.0 0.0 0.10 0.10 0.10 91 1014.2
20260504023515 16 0.0 4.8 0.10 0.10 0.10 91 1014.2
20260504023016 16 0.0 4.8 0.08 0.08 0.08 91 1014.1
20260504022516 16 0.0 3.2 0.08 0.08 0.08 90 1014.1
20260504022016 16 45 1.6 4.8 0.05 0.05 0.05 90 1014.1
20260504021515 16 0.0 3.2 0.03 0.03 0.03 90 1014.1
20260504021016 16 45 1.6 4.8 0.03 0.03 0.03 90 1014.1
20260504020515 16 68 1.6 6.4 0.03 0.03 0.03 90 1014.2
20260504020016 16 0.0 3.2 0.03 0.03 0.03 89 1014.3
20260504015535 16 0.0 3.2 0.03 0.03 0.03 89 1014.3
20260504015015 16 0.0 0.0 0.00 0.00 0.00 89 1014.3
20260504014515 16 0.0 3.2 0.00 0.00 0.00 89 1014.4
20260504014035 17 68 1.6 4.8 0.00 0.00 0.00 88 1014.4
20260504013515 17 0.0 0.0 0.00 0.00 0.00 88 1014.4
20260504013015 17 0.0 0.0 0.00 0.00 0.00 88 1014.5
20260504012515 17 0.0 0.0 0.00 0.00 0.00 88 1014.5
20260504012015 17 0.0 0.0 0.00 0.00 0.00 87 1014.5
20260504011535 17 68 1.6 6.4 0.00 0.00 0.00 86 1014.4
20260504011015 17 68 3.2 6.4 0.00 0.00 0.00 85 1014.5
20260504010515 17 0.0 4.8 0.00 0.00 0.00 85 1014.5
20260504010015 17 0.0 0.0 0.00 0.00 0.00 85 1014.5
20260504005515 17 0.0 0.0 0.00 0.00 0.00 85 1014.4
20260504005035 17 0.0 0.0 0.00 0.00 0.00 84 1014.4
20260504004515 17 0.0 3.2 0.00 0.00 0.00 84 1014.5
20260504004035 17 45 1.6 4.8 0.00 0.00 0.00 84 1014.5
20260504003515 17 0.0 4.8 0.00 0.00 0.00 84 1014.6
20260504003015 17 68 1.6 9.7 0.00 0.00 0.00 84 1014.5
20260504002515 17 68 1.6 6.4 0.00 0.00 0.00 84 1014.5
20260504002015 17 0.0 3.2 0.00 0.00 0.00 83 1014.5
20260504001515 17 68 3.2 8.0 0.00 0.00 0.00 83 1014.4
20260504001015 17 90 3.2 6.4 0.00 0.00 0.00 83 1014.5
20260504000515 17 68 3.2 8.0 0.00 0.00 0.00 83 1014.5
20260504000015 18 68 1.6 8.0 0.00 0.00 0.00 83 1014.4
20260503235515 18 68 3.2 6.4 0.00 0.00 0.00 83 1014.5
20260503235037 18 68 1.6 6.4 0.00 0.00 0.00 83 1014.5
20260503234517 18 0.0 4.8 0.00 0.00 0.00 83 1014.5
20260503234037 18 45 1.6 4.8 0.00 0.00 0.00 84 1014.6
20260503233517 18 45 1.6 6.4 0.00 0.00 0.00 84 1014.6
20260503233037 17 0.0 3.2 0.00 0.00 0.00 84 1014.6
20260503232517 17 45 1.6 8.0 0.00 0.00 0.00 84 1014.8
20260503232017 17 68 1.6 9.7 0.00 0.00 0.00 85 1014.8
20260503231517 17 68 1.6 6.4 0.00 0.00 0.00 85 1014.8
20260503231017 17 45 3.2 9.7 0.00 0.00 0.00 85 1014.9
20260503230517 17 45 1.6 6.4 0.00 0.00 0.00 86 1014.9
20260503230017 17 45 1.6 6.4 0.00 0.00 0.00 86 1014.9
20260503225537 17 45 1.6 6.4 0.00 0.00 0.00 86 1014.9
20260503225017 17 45 1.6 4.8 0.00 0.00 0.00 87 1014.9
20260503224537 17 45 1.6 4.8 0.00 0.00 0.00 87 1014.9
20260503224017 17 0.0 6.4 0.00 0.00 0.00 87 1014.9
20260503223517 17 0.0 3.2 0.00 0.00 0.00 87 1015.0
20260503223017 17 0.0 4.8 0.00 0.00 0.00 87 1015.0
20260503222517 17 45 1.6 8.0 0.00 0.00 0.00 87 1015.0
20260503222017 17 45 1.6 6.4 0.00 0.00 0.00 87 1015.1
20260503221517 17 45 3.2 9.7 0.00 0.00 0.00 87 1015.1
20260503221037 17 23 3.2 8.0 0.00 0.00 0.00 88 1015.2
20260503220517 17 23 1.6 8.0 0.00 0.00 0.00 88 1015.2
20260503220017 17 23 1.6 6.4 0.00 0.00 0.00 88 1015.1
20260503215516 17 45 3.2 9.7 0.00 0.00 0.00 88 1015.2
20260503215016 17 68 3.2 8.0 0.00 0.00 0.00 88 1015.2
20260503214516 17 68 1.6 4.8 0.00 0.00 0.00 88 1015.3
20260503214016 17 90 3.2 6.4 0.00 0.00 0.00 88 1015.3
20260503213516 17 90 1.6 3.2 0.00 0.00 0.00 88 1015.4
20260503213016 17 90 1.6 4.8 0.00 0.00 0.00 88 1015.5
20260503212516 17 0.0 4.8 0.00 0.00 0.00 88 1015.4
20260503212016 17 90 4.8 8.0 0.00 0.00 0.00 88 1015.4
20260503211536 17 90 3.2 8.0 0.00 0.00 0.00 88 1015.4
20260503211036 17 68 3.2 6.4 0.00 0.00 0.00 88 1015.4
20260503210516 17 90 6.4 11.3 0.00 0.00 0.00 88 1015.5
20260503210016 17 90 4.8 9.7 0.00 0.00 0.00 87 1015.5
20260503205516 17 90 3.2 9.7 0.00 0.00 0.00 87 1015.3
20260503205016 17 68 6.4 11.3 0.00 0.00 0.00 87 1015.4
20260503204516 17 68 4.8 8.0 0.00 0.00 0.00 87 1015.3
20260503204016 17 68 4.8 9.7 0.00 0.00 0.00 87 1015.3
20260503203516 17 90 4.8 11.3 0.00 0.00 0.00 87 1015.3
20260503203016 17 90 8.0 14.5 0.00 0.00 0.00 87 1015.3
20260503202516 17 90 9.7 14.5 0.00 0.00 0.00 87 1015.2
20260503202016 17 90 4.8 12.9 0.00 0.00 0.00 87 1015.2
20260503201516 17 90 8.0 14.5 0.00 0.00 0.00 88 1015.1
20260503201016 17 68 9.7 14.5 0.00 0.00 0.00 87 1014.9
20260503200516 17 90 6.4 12.9 0.00 0.00 0.00 87 1014.8
20260503200016 17 90 9.7 16.1 0.00 0.00 0.00 87 1014.7
20260503195516 17 90 11.3 17.7 0.00 0.00 0.00 87 1014.7
20260503195016 17 90 8.0 16.1 0.00 0.00 0.00 87 1014.5
20260503194516 17 90 11.3 16.1 0.00 0.00 0.00 87 1014.3
20260503194016 17 90 11.3 17.7 0.00 0.00 0.00 87 1014.2
20260503193516 17 90 11.3 17.7 0.00 0.00 0.00 86 1014.0
20260503193035 17 68 6.4 14.5 0.00 0.00 0.00 86 1014.0
20260503192516 17 90 8.0 16.1 0.00 0.00 0.00 86 1013.8
20260503192016 17 68 6.4 14.5 0.00 0.00 0.00 86 1013.7
20260503191516 17 68 9.7 17.7 0.00 0.00 0.00 86 1013.6
20260503191016 17 90 8.0 16.1 0.00 0.00 0.00 86 1013.7
20260503190516 17 68 11.3 17.7 0.00 0.00 0.00 86 1013.6
20260503190016 17 68 17.7 24.1 0.00 0.00 0.00 86 1013.4
20260503185516 17 68 17.7 25.7 0.00 0.00 0.00 85 1013.4
20260503185016 17 68 16.1 24.1 0.00 0.00 0.00 85 1013.5
20260503184516 17 90 12.9 17.7 0.00 0.00 0.00 84 1013.7
20260503184016 17 68 16.1 22.5 0.00 0.00 0.00 84 1013.6
20260503183516 18 68 16.1 24.1 0.00 0.00 0.00 84 1013.7
20260503183016 18 90 16.1 24.1 0.00 0.00 0.00 84 1013.7
20260503182516 18 68 11.3 22.5 0.00 0.00 0.00 83 1013.5
20260503182016 18 90 16.1 24.1 0.00 0.00 0.00 83 1013.5
20260503181536 18 90 11.3 19.3 0.00 0.00 0.00 82 1013.5
20260503181015 18 45 12.9 24.1 0.00 0.00 0.00 82 1013.4
20260503180516 18 45 16.1 25.7 0.00 0.00 0.00 82 1013.3
20260503180036 18 45 16.1 27.4 0.00 0.00 0.00 81 1013.4
20260503175515 18 68 12.9 24.1 0.00 0.00 0.00 81 1013.3
20260503175015 18 68 17.7 25.7 0.00 0.00 0.00 82 1013.3
20260503174535 18 68 16.1 24.1 0.00 0.00 0.00 82 1013.4
20260503174015 18 68 14.5 25.7 0.00 0.00 0.00 81 1013.4
20260503173515 18 68 14.5 29.0 0.00 0.00 0.00 81 1013.2
20260503173015 18 68 11.3 19.3 0.00 0.00 0.00 81 1013.2
20260503172515 18 68 16.1 27.4 0.00 0.00 0.00 80 1013.1
20260503172015 18 68 16.1 25.7 0.00 0.00 0.00 81 1013.2
20260503171516 18 68 17.7 29.0 0.00 0.00 0.00 81 1013.0
20260503171016 18 68 17.7 27.4 0.00 0.00 0.00 81 1013.1
20260503170516 18 45 17.7 27.4 0.00 0.00 0.00 80 1013.1
20260503150515 20 68 20.9 27.4 0.00 0.00 0.00 69 1013.2
20260503131017 24 225 6.4 17.7 0.00 0.00 0.00 60 1014.2
20260503130517 23 248 3.2 11.3 0.00 0.00 0.00 60 1014.3
20260503110517 20 0.0 3.2 0.00 0.00 0.00 72 1015.7